Zurück zum Katalog

COSMOS 2145

AktivNavigationPO
NORAD 21301·PAYLOAD·🇷🇺 Russia

Gestartet May 16, 1991 von Plesetsk Cosmodrome

Loading…

Nächste Überflüge (nächste 24 Stunden)

TLE

AktuellSource: Space-Track

Epoche: Sep 14, 2026, 08:44 UTC

1 21301U 91033C   26257.36449859 -.00000004  00000-0 -82736-4 0  9999
2 21301  82.5617 250.1548 0007244 244.8463 115.1878 12.63218507628766

Verfolge COSMOS 2145 in Echtzeit mit AllMySat

Download on the App Store